星链-3111 (STARLINK-3111 )

导读 | 星芒AI

STARLINK-3111 是 SpaceX Starlink 卫星互联网项目中的一颗低轨卫星,属于第三代星链卫星(v1.5 或 v2 版本)。该卫星由 SpaceX 研发并发射,旨在为全球用户提供高速、低延迟的宽带互联网服务。它运行在约 550 公里的轨道高度,配备先进通信设备,支持全球范围内的网络连接,尤其服务于偏远和网络基础设施薄弱的地区。STARLINK-3111 与其他星链卫星协同工作,构建起覆盖广泛的太空通信网络。

基本信息
目录编号:
49418
目录名称:
STARLINK-3111
国际标识:
2021-104L
轨道中心:
EARTH
卫星名称:
星链-3111
卫星全名:
星链-3111 (STARLINK-3111 )
卫星状态:
在轨 (已飞行1448 天)
发射日期:
2021-11-13 UTC
国别 :
美国 (US)
星等 :
--
轨道信息
数据来源 国际轨道数据 AOE轨道数据
星历时间 2025-10-31T03:23:13+0800
1天前
查看轨道信息
2025-10-25T15:00:00+0800
6天前
查看轨道信息
半长轴 6917.882km 6917.873km
偏心率 0.0001399 0.000215
轨道倾角 53.216° 53.215°
近地点辐角 83.730° 66.116°
升交点赤经 92.182° 116.946°
平近点角 276.386° 195.129°
近地点 538.779km 538.25km
远地点 540.715km 541.226km
周期 95.438分钟 95.437分钟
每日圈数 15.088395 15.088426
详细信息
固有亮度:
5
最大亮度:
2.5
卫星平台:
Starlink v1.5
覆盖范围:
全球
运营商:
太空探索技术公司
运营商所在国:
美国
制造商(研发单位):
太空探索技术公司
制造商所在国:
美国
使用方式:
暂无
卫星简介
星链(Starlink)计划是由太空探索技术公司(SpaceX)提出的一个巨型低轨卫星互联网星座项目,计划在2019年至2024年间在太空搭建由约1.2万颗卫星组成的“星链”网络,其中1584颗将部署在地球上空550千米处的近地轨道,并从2020年开始工作。该卫星仍在工作。
2D轨道图
3D轨道图
轨道高度分析图
轨道倾角分析图
轨道综合分析图
查看轨道综合分析图